TimeEST,TemperatureF,Dew PointF,Humidity,Sea Level PressureIn,VisibilityMPH,Wind Direction,Wind SpeedMPH,Gust SpeedMPH,PrecipitationIn,Events,Conditions,WindDirDegrees,DateUTC
12:14 AM,33.8,30.2,87,29.68,6.0,WNW,3.5,-,0.00,Snow,Light Snow,300,2013-03-01 05:14:00
12:53 AM,33.1,28.9,85,29.72,10.0,NW,6.9,-,0.00,,Overcast,320,2013-03-01 05:53:00
1:53 AM,33.1,28.9,85,29.72,7.0,NW,4.6,-,0.00,Snow,Light Snow,320,2013-03-01 06:53:00
2:53 AM,33.1,28.9,85,29.72,9.0,NNW,9.2,-,0.00,,Overcast,330,2013-03-01 07:53:00
3:49 AM,32.0,28.4,87,29.71,5.0,NNW,9.2,-,0.00,Snow,Light Snow,330,2013-03-01 08:49:00
3:53 AM,32.0,28.9,88,29.74,4.0,NW,9.2,-,0.00,Snow,Light Snow,320,2013-03-01 08:53:00
4:13 AM,32.0,28.4,87,29.71,9.0,NNW,8.1,-,0.00,,Overcast,330,2013-03-01 09:13:00
4:53 AM,32.0,28.0,85,29.76,5.0,NNW,9.2,-,0.00,Snow,Light Snow,330,2013-03-01 09:53:00
5:02 AM,32.0,28.4,87,29.73,3.0,NW,9.2,-,0.00,Snow,Light Snow,320,2013-03-01 10:02:00
5:24 AM,30.2,28.4,93,29.73,4.0,NNW,11.5,-,0.00,Snow,Light Snow,330,2013-03-01 10:24:00
5:53 AM,30.9,28.0,89,29.77,8.0,NW,11.5,17.3,0.00,,Overcast,320,2013-03-01 10:53:00
6:28 AM,30.2,28.4,93,29.75,4.0,NW,8.1,-,0.00,Snow,Light Snow,320,2013-03-01 11:28:00
6:42 AM,30.2,26.6,86,29.76,9.0,NW,10.4,-,0.00,,Overcast,320,2013-03-01 11:42:00
6:50 AM,30.2,26.6,86,29.76,9.0,NW,12.7,-,0.00,,Overcast,320,2013-03-01 11:50:00
7:04 AM,30.2,26.6,86,29.76,8.0,NNW,10.4,16.1,N/A,,Overcast,330,2013-03-01 12:04:00
7:53 AM,30.9,27.0,85,29.81,4.0,NW,11.5,-,0.00,Snow,Light Snow,310,2013-03-01 12:53:00
8:25 AM,30.2,26.6,86,29.79,2.0,NW,8.1,-,0.00,Snow,Light Snow,310,2013-03-01 13:25:00
8:36 AM,30.2,26.6,86,29.79,3.0,NW,11.5,-,0.00,Snow,Light Snow,320,2013-03-01 13:36:00
8:53 AM,30.9,26.1,82,29.83,5.0,NNW,9.2,19.6,0.00,Snow,Light Snow,330,2013-03-01 13:53:00
9:53 AM,30.9,26.1,82,29.83,7.0,NW,9.2,18.4,0.00,Snow,Light Snow,310,2013-03-01 14:53:00
10:01 AM,30.2,26.6,86,29.80,5.0,NW,10.4,-,0.00,Snow,Light Snow,310,2013-03-01 15:01:00
10:53 AM,30.9,26.1,82,29.84,5.0,NW,8.1,-,0.00,Snow,Light Snow,310,2013-03-01 15:53:00
1:27 PM,30.2,24.8,80,29.82,10.0,NW,11.5,-,0.00,,Overcast,310,2013-03-01 18:27:00
1:53 PM,30.0,24.1,79,29.86,10.0,NW,9.2,19.6,0.00,,Overcast,310,2013-03-01 18:53:00
2:53 PM,28.9,23.0,78,29.86,10.0,WNW,12.7,18.4,N/A,,Overcast,300,2013-03-01 19:53:00
3:28 PM,30.2,21.2,69,29.83,10.0,WNW,10.4,17.3,N/A,,Overcast,300,2013-03-01 20:28:00
3:53 PM,28.9,21.0,72,29.87,10.0,WNW,9.2,16.1,N/A,,Overcast,300,2013-03-01 20:53:00
4:53 PM,28.0,21.0,75,29.88,6.0,WNW,6.9,-,0.00,,Haze,290,2013-03-01 21:53:00
5:53 PM,27.0,19.0,72,29.90,10.0,WNW,12.7,20.7,0.00,,Overcast,300,2013-03-01 22:53:00
6:53 PM,26.1,19.0,75,29.92,10.0,WNW,12.7,18.4,N/A,,Overcast,290,2013-03-01 23:53:00
7:53 PM,26.1,19.0,75,29.92,10.0,WSW,8.1,-,N/A,,Overcast,250,2013-03-02 00:53:00
8:53 PM,26.1,19.0,75,29.91,10.0,West,8.1,-,N/A,,Overcast,270,2013-03-02 01:53:00
9:45 PM,26.6,19.4,74,29.88,10.0,West,9.2,-,N/A,,Overcast,260,2013-03-02 02:45:00
9:53 PM,27.0,19.0,72,29.91,10.0,West,9.2,-,N/A,,Overcast,260,2013-03-02 02:53:00
10:53 PM,27.0,19.9,75,29.91,7.0,WNW,5.8,-,0.00,Snow,Light Snow,290,2013-03-02 03:53:00
11:09 PM,26.6,19.4,74,29.87,7.0,WNW,8.1,-,0.00,Snow,Light Snow,290,2013-03-02 04:09:00
11:53 PM,27.0,19.9,75,29.90,8.0,WNW,8.1,-,0.00,Snow,Light Snow,290,2013-03-02 04:53:00